Location: Czekanka
(50.4925°N, 19.2643°E)
Time: 06:34:47
(UTC+00:00)

SL-16 R/B - Pass Details

Date: 20 September 2024
Orbit: 842 x 846 km, 71.0° (Epoch: 05 October)

Event Time Altitude Azimuth Distance (km) Brightness Sun altitude
Rises 17:05:48 0° 165° (SSE) 3,392 5.1 -4.2°
Reaches altitude 10° 17:08:43 10° 151° (SSE) 2,462 4.3 -4.6°
Maximum altitude 17:12:58 22° 102° (ESE) 1,751 3.3 -5.3°
Drops below altitude 10° 17:17:14 10° 52° (NE) 2,473 4.2 -6.0°
Sets 17:20:10 0° 39° (NE) 3,413 5.1 -6.4°
